Regional Weather Roundup
Issued by NWS Midland/Odessa, TX

Skip options and go directly to product.
Home | Oldest Version | Previous Version | Current Version | All | Text Only | Save Text | Print | Product List | Glossary Off

Skip product version selection by date and time.   

596
ASUS44 KMAF 250010
RWRMAF
MIDLAND AREA WEATHER ROUNDUP
NATIONAL WEATHER SERVICE MIDLAND TX
700 PM CDT FRI OCT 24 2014

...IN SOUTHWEST TEXAS AND SOUTHEAST NEW MEXICO...

CITY           SKY/WX    TMP DP  RH WIND       PRES   REMARKS
ALPINE         CLEAR     78  44  30 CALM      30.26S
ANDREWS        FAIR      79  48  34 SW5       30.14R
ARTESIA        NOT AVBL
BIG SPRING     CLEAR     80  52  37 SE3       30.13R
CARLSBAD       CLEAR     78  57  48 SE6       30.10S
DRYDEN           N/A     79  57  46 SE9       30.10R
FORT STOCKTON  CLEAR     82  46  28 CALM      30.12S
GUAD PASS      CLEAR     72  44  36 SW9       30.28S
HOBBS          CLEAR     77  48  36 S6        30.15S
MARFA          CLEAR     73  52  46 SE5       30.25S
MIDLAND AIRPK  CLEAR     83  46  27 CALM      30.12S
MIDLAND INTL   CLEAR     83  45  26 SW6       30.11S
ODESSA         CLEAR     80  45  28 NW7       30.13S
PECOS          CLEAR     81  53  38 E6        30.09S
PRESIDIO       FAIR      84  47  27 CALM      30.11S
SEMINOLE       CLEAR     76  51  42 S5        30.14S
SNYDER         CLEAR     80  57  46 CALM      30.12S
WINK           CLEAR     80  50  34 SE6       30.10R
$$
...OTHER STATIONS IN TEXAS...

CITY           SKY/WX    TMP DP  RH WIND       PRES   REMARKS
ABILENE        CLEAR     81  53  37 S6        30.09S
AMARILLO       CLEAR     75  45  34 S9        30.11R
AUSTIN         CLEAR     77  61  57 E6        30.08S
BROWNSVILLE    CLEAR     76  64  66 NE7       30.09R
CORPUS CHRISTI PTCLDY    76  62  62 SE7       30.08R
DALLAS FTW     PTCLDY    79  60  52 S8        30.06S
DEL RIO        CLEAR     81  63  54 SE5       30.06S
EL PASO        CLEAR     80  45  28 CALM      30.15F
HOUSTON INT    PTCLDY    71  57  61 NE6       30.09R
LUBBOCK        PTCLDY    76  50  40 S7        30.11S
SAN ANGELO     CLEAR     82  51  34 S5        30.09R
SAN ANTONIO    PTCLDY    80  57  45 SE6       30.09R
WACO           CLEAR     74  61  63 E7        30.08S
WICHITA FALLS  NOT AVBL
$$
...OTHER LOCATIONS IN NEW MEXICO...

CITY           SKY/WX    TMP DP  RH WIND       PRES   REMARKS
ALAMAGORDO     NOT AVBL
ALBUQUERQUE    PTCLDY    77  31  18 S5        30.23F
CANNON AFB     CLEAR     76  41  28 SW7       30.15S
CLOVIS         CLEAR     75  41  29 SW9       30.17R
HOLLOMAN AFB   CLEAR     80  44  27 CALM      30.15
ROSWELL        CLEAR     77  53  43 S8        30.12F
RUIDOSO        CLEAR     66  36  32 NW8       30.35R
SANTA FE       CLEAR     71  27  19 SW7       30.27F
TRUTH OR CONSE CLEAR     78  44  29 S6        30.19F
TUCUMCARI      CLEAR     79  37  22 S9        30.09S
$$

USA.gov is the U.S. government's official web portal to all federal, state and local government web resources and services.